SPACEBEE-148 (52406 NORAD) Tracking and Keplerian Element Data

This shows tracking and keplerian element data for the satellite.

Feedback or suggestion? Click here.




ElementValue
Catalog52406
NameSPACEBEE-148
Epoch Orbit1203
Epoch Day192.80435898
Epoch Year2022
RAAN277.1641
Inclination97.4499
Eccentricity0.0011438
Argument of Perigee94.9226
Mean Anonmoly265.3312
Mean Motion15.13879491
Decay Rate7.786E-05
L11 52406U 22047N 22192.80435898 .00007786 00000+0 43309-3 0 9992
L22 52406 97.4499 277.1641 0011438 94.9226 265.3312 15.13879491 12034

Live tracking and technical data element details for SPACEBEE-148 (NORAD 52406). SPACEBEE-148 can be tracked NOW for your location showing map with azimuth and elevation plus other details from your city location.

Track the satellite on the map from your city or location and see movement details for azimuth, elevation, latitude, longitude, range, height, and movement on the map or in text.







IsCatalogInMostPopularTable: catalog: 52406, numindb: 4
Update: records affected: 1



GetName: 52406 SPACEBEE-148

Hit Count: updated at: Sun, 14 Aug 2022 00:52:25 GMT